Weather History for Danville, VA

Change the Weather History Date:

Friday, December 2, 2011

  Actual Average Record
Temperature  
Mean Temperature 43 °F 43 °F  
Max Temperature 61 °F 54 °F 73 °F (2001)
Min Temperature 24 °F 33 °F 15 °F (1976)
Degree Days  
Heating Degree Days 22 22  
Month to date heating degree days 46 43  
Since 1 July heating degree days 773 752  
Cooling Degree Days 0 0  
Month to date cooling degree days 0 0  
Year to date cooling degree days 1564 1439  
Moisture  
Dew Point 25 °F    
Average Humidity 60    
Maximum Humidity 100    
Minimum Humidity 19    
Precipitation  
Precipitation 0.00 in 0.12 in 1.02 in (2009)
Month to date precipitation 0.00 0.23  
Year to date precipitation 36.82 41.37  
Snow  
Snow 0.00 in - - ()
Month to date snowfall 0.0  
Since 1 July snowfall 0.0  
Snow Depth 0.00 in    
Sea Level Pressure  
Sea Level Pressure 30.39 in    
Wind  
Wind Speed 3 mph (WSW)    
Max Wind Speed 10 mph    
Max Gust Speed 13 mph    
Visibility 10 miles    
Events      
T = Trace of Precipitation, MM = Missing Value Source: NWS Daily Summary

Daily Weather History Graph

Daily Weather History Graph

Search for Another Location

Airport:

Trip Planner

Search our weather history database for the weather conditions in past years. The results will help you decide how hot, cold, wet, or windy it might be!

Date:

Astronomy

Dec. 02, 2011 Rise Set
Actual Time 7:11 AM EST 5:01 PM EST
Civil Twilight 6:43 AM EST 5:30 PM EST
Nautical Twilight 6:11 AM EST 6:02 PM EST
Astronomical Twilight 5:39 AM EST 6:33 PM EST
Moon 12:30 PM EST (12/2) No Moon Set
Length of Visible Light 10h 46m
Length of Day
9h 50m
First Quarter, 53% of the Moon is Illuminated
Dec 2
First Quarter
Dec 10
Full
Dec 17
Last Quarter
Dec 24
New
Jan 1
First Quarter

Hourly Weather History & Observations

Time (EST) Temp. Windchill Dew Point Humidity Pressure Visibility Wind Dir Wind Speed Gust Speed Precip Events Conditions
12:53 AM 27.0 °F - 26.1 °F 96% 30.35 in - Calm Calm - N/A   Clear
1:53 AM 28.0 °F - 26.1 °F 92% 30.35 in 9.0 mi Calm Calm - N/A   Clear
2:53 AM 26.1 °F - 25.0 °F 96% 30.35 in - Calm Calm - N/A   Clear
3:53 AM 26.6 °F 21.2 °F 24.8 °F 93% 30.35 in 10.0 mi SSW 4.6 mph - N/A   Clear
4:53 AM 27.0 °F - 25.0 °F 92% 30.35 in 10.0 mi Calm Calm - N/A   Clear
5:53 AM 25.0 °F 20.7 °F 24.1 °F 96% 30.36 in 10.0 mi SW 3.5 mph - N/A   Clear
6:53 AM 24.8 °F - 23.0 °F 93% 30.37 in - Calm Calm - N/A   Clear
7:53 AM 27.0 °F 21.6 °F 25.0 °F 92% 30.38 in 10.0 mi West 4.6 mph - N/A   Clear
8:53 AM 36.0 °F 32.1 °F 30.0 °F 79% 30.39 in 10.0 mi West 4.6 mph - N/A   Clear
9:53 AM 39.9 °F 35.1 °F 30.9 °F 70% 30.39 in 10.0 mi SW 6.9 mph - N/A   Clear
10:53 AM 48.9 °F - 30.9 °F 50% 30.39 in 10.0 mi SW 5.8 mph - N/A   Clear
11:53 AM 55.0 °F - 26.1 °F 33% 30.37 in 10.0 mi WSW 4.6 mph - N/A   Clear
12:53 PM 57.0 °F - 25.0 °F 29% 30.35 in - NW 3.5 mph - N/A   Clear
1:53 PM 59.0 °F - 21.2 °F 23% 30.35 in - West 5.8 mph - N/A   Clear
2:53 PM 61.0 °F - 17.1 °F 18% 30.34 in 10.0 mi West 9.2 mph - N/A   Clear
3:53 PM 60.1 °F - 17.1 °F 19% 30.35 in 10.0 mi WNW 4.6 mph - N/A   Clear
4:53 PM 53.1 °F - 24.1 °F 32% 30.37 in 10.0 mi Calm Calm - N/A   Clear
5:53 PM 46.0 °F - 23.0 °F 40% 30.39 in 10.0 mi Calm Calm - N/A   Clear
6:53 PM 42.1 °F - 28.0 °F 58% 30.41 in 10.0 mi Calm Calm - N/A   Clear
7:53 PM 41.0 °F - 28.0 °F 60% 30.43 in 10.0 mi Calm Calm - N/A   Clear
8:53 PM 39.0 °F - 28.0 °F 65% 30.45 in 10.0 mi Calm Calm - N/A   Clear
9:53 PM 35.1 °F 32.2 °F 27.0 °F 72% 30.46 in 10.0 mi SW 3.5 mph - N/A   Clear
10:53 PM 33.8 °F - 26.6 °F 75% 30.48 in 10.0 mi Calm Calm - N/A   Clear
11:53 PM 33.1 °F 30.0 °F 28.0 °F 82% 30.49 in 10.0 mi WSW 3.5 mph - N/A   Clear